Time,TemperatureF,DewpointF,PressureIn,WindDirection,WindDirectionDegrees,WindSpeedMPH,WindSpeedGustMPH,Humidity,HourlyPrecipIn,Conditions,Clouds,dailyrainin,SoftwareType,DateUTC
2013-02-20 00:02:00,34.0,25.0,29.77,ESE,122,10.0,17.0,69,0.00,,,0.18,,2013-02-20 05:02:00,
2013-02-20 00:12:00,34.0,25.0,29.77,ESE,122,10.0,17.0,69,0.00,,,0.18,,2013-02-20 05:12:00,
2013-02-20 00:22:00,34.0,24.0,29.78,SE,131,7.0,13.0,66,0.00,,,0.18,,2013-02-20 05:22:00,
2013-02-20 00:32:00,33.0,21.0,29.78,SE,132,9.0,18.0,62,0.00,,,0.18,,2013-02-20 05:32:00,
2013-02-20 00:43:00,33.0,21.0,29.78,SE,132,9.0,18.0,62,0.00,,,0.18,,2013-02-20 05:43:00,
2013-02-20 00:52:00,33.0,21.0,29.78,ESE,112,11.0,18.0,61,0.00,,,0.18,,2013-02-20 05:52:00,
2013-02-20 01:02:00,33.0,21.0,29.78,ESE,119,7.0,18.0,61,0.00,,,0.18,,2013-02-20 06:02:00,
2013-02-20 01:11:00,33.0,21.0,29.78,ESE,119,7.0,18.0,61,0.00,,,0.18,,2013-02-20 06:11:00,
2013-02-20 01:22:00,33.0,20.0,29.78,ESE,109,16.0,28.0,59,0.00,,,0.18,,2013-02-20 06:22:00,
2013-02-20 01:32:00,32.0,19.0,29.79,ESE,114,14.0,22.0,58,0.00,,,0.18,,2013-02-20 06:32:00,
2013-02-20 01:42:00,32.0,19.0,29.79,ESE,114,14.0,22.0,58,0.00,,,0.18,,2013-02-20 06:42:00,
2013-02-20 01:51:00,31.0,19.0,29.79,ENE,77,10.0,20.0,60,0.00,,,0.18,,2013-02-20 06:51:00,
2013-02-20 02:02:00,31.0,20.0,29.79,East,93,9.0,15.0,62,0.00,,,0.18,,2013-02-20 07:02:00,
2013-02-20 02:11:00,31.0,20.0,29.79,East,93,9.0,15.0,62,0.00,,,0.18,,2013-02-20 07:11:00,
2013-02-20 02:21:00,31.0,20.0,29.79,ESE,112,12.0,18.0,63,0.00,,,0.18,,2013-02-20 07:21:00,
2013-02-20 02:32:00,31.0,19.0,29.80,East,94,11.0,21.0,61,0.00,,,0.18,,2013-02-20 07:32:00,
2013-02-20 02:42:00,31.0,19.0,29.80,East,94,11.0,21.0,61,0.00,,,0.18,,2013-02-20 07:42:00,
2013-02-20 02:52:00,30.0,19.0,29.80,ENE,68,11.0,19.0,62,0.00,,,0.18,,2013-02-20 07:52:00,
2013-02-20 03:05:00,30.0,18.0,29.81,East,94,14.0,20.0,61,0.00,,,0.18,,2013-02-20 08:05:00,
2013-02-20 03:11:00,30.0,18.0,29.81,East,94,14.0,20.0,61,0.00,,,0.18,,2013-02-20 08:11:00,
2013-02-20 03:22:00,30.0,18.0,29.81,ESE,105,13.0,23.0,60,0.00,,,0.18,,2013-02-20 08:22:00,
2013-02-20 03:31:00,29.0,17.0,29.82,East,84,9.0,18.0,61,0.00,,,0.18,,2013-02-20 08:31:00,
2013-02-20 03:42:00,29.0,17.0,29.82,East,84,9.0,18.0,61,0.00,,,0.18,,2013-02-20 08:42:00,
2013-02-20 03:52:00,29.0,18.0,29.81,ESE,107,7.0,13.0,62,0.00,,,0.18,,2013-02-20 08:52:00,
2013-02-20 04:02:00,28.0,17.0,29.82,East,100,4.0,11.0,63,0.00,,,0.18,,2013-02-20 09:02:00,
2013-02-20 04:11:00,28.0,17.0,29.82,East,100,4.0,11.0,63,0.00,,,0.18,,2013-02-20 09:11:00,
2013-02-20 04:21:00,28.0,17.0,29.82,ESE,103,5.0,8.0,63,0.00,,,0.18,,2013-02-20 09:21:00,
2013-02-20 04:32:00,28.0,17.0,29.82,ESE,117,8.0,13.0,62,0.00,,,0.18,,2013-02-20 09:32:00,
2013-02-20 04:42:00,28.0,17.0,29.82,ESE,117,8.0,13.0,62,0.00,,,0.18,,2013-02-20 09:42:00,
2013-02-20 04:51:00,28.0,17.0,29.83,SE,124,9.0,15.0,62,0.00,,,0.18,,2013-02-20 09:51:00,
2013-02-20 05:01:00,28.0,17.0,29.83,ESE,119,6.0,15.0,63,0.00,,,0.18,,2013-02-20 10:01:00,
2013-02-20 05:12:00,28.0,17.0,29.83,ESE,119,6.0,15.0,63,0.00,,,0.18,,2013-02-20 10:12:00,
2013-02-20 05:22:00,28.0,18.0,29.83,ESE,104,5.0,13.0,65,0.00,,,0.18,,2013-02-20 10:22:00,
2013-02-20 05:32:00,28.0,17.0,29.84,East,89,7.0,15.0,63,0.00,,,0.18,,2013-02-20 10:32:00,
2013-02-20 05:42:00,28.0,17.0,29.84,East,89,7.0,15.0,63,0.00,,,0.18,,2013-02-20 10:42:00,
2013-02-20 05:51:00,28.0,16.0,29.84,ESE,110,12.0,19.0,60,0.00,,,0.18,,2013-02-20 10:51:00,
2013-02-20 06:02:00,28.0,16.0,29.84,SE,128,11.0,22.0,61,0.00,,,0.18,,2013-02-20 11:02:00,
2013-02-20 06:11:00,28.0,19.0,29.86,SE,124,8.0,16.0,69,0.00,,,0.18,,2013-02-20 11:11:00,
2013-02-20 06:21:00,28.0,19.0,29.86,SE,124,8.0,16.0,69,0.00,,,0.18,,2013-02-20 11:21:00,
2013-02-20 06:32:00,27.0,20.0,29.87,ESE,110,7.0,13.0,73,0.00,,,0.18,,2013-02-20 11:32:00,
2013-02-20 06:42:00,27.0,20.0,29.87,ESE,110,7.0,13.0,73,0.00,,,0.18,,2013-02-20 11:42:00,
2013-02-20 06:52:00,27.0,20.0,29.87,East,100,5.0,15.0,74,0.00,,,0.18,,2013-02-20 11:52:00,
2013-02-20 07:02:00,27.0,20.0,29.87,East,100,5.0,15.0,74,0.00,,,0.18,,2013-02-20 12:02:00,
2013-02-20 07:12:00,27.0,20.0,29.87,East,100,5.0,15.0,74,0.00,,,0.18,,2013-02-20 12:12:00,
2013-02-20 07:22:00,26.0,17.0,29.89,SE,131,7.0,16.0,69,0.00,,,0.18,,2013-02-20 12:22:00,
2013-02-20 07:32:00,26.0,16.0,29.90,ESE,116,12.0,20.0,65,0.00,,,0.18,,2013-02-20 12:32:00,
2013-02-20 07:42:00,26.0,16.0,29.90,ESE,116,12.0,20.0,65,0.00,,,0.18,,2013-02-20 12:42:00,
2013-02-20 07:52:00,26.0,14.0,29.90,ESE,108,10.0,21.0,61,0.00,,,0.18,,2013-02-20 12:52:00,
2013-02-20 08:01:00,25.0,13.0,29.91,ESE,119,13.0,23.0,60,0.00,,,0.18,,2013-02-20 13:01:00,
2013-02-20 08:12:00,25.0,13.0,29.91,ESE,119,13.0,23.0,60,0.00,,,0.18,,2013-02-20 13:12:00,
2013-02-20 08:22:00,25.0,13.0,29.92,ESE,119,12.0,21.0,60,0.00,,,0.18,,2013-02-20 13:22:00,
2013-02-20 08:32:00,25.0,13.0,29.93,ESE,120,13.0,21.0,60,0.00,,,0.18,,2013-02-20 13:32:00,
2013-02-20 08:42:00,25.0,13.0,29.93,ESE,120,13.0,21.0,60,0.00,,,0.18,,2013-02-20 13:42:00,
2013-02-20 08:52:00,25.0,13.0,29.93,SE,127,16.0,28.0,61,0.00,,,0.18,,2013-02-20 13:52:00,
2013-02-20 09:01:00,25.0,13.0,29.93,SE,128,16.0,28.0,60,0.00,,,0.18,,2013-02-20 14:01:00,
2013-02-20 09:11:00,25.0,13.0,29.93,SE,128,16.0,28.0,60,0.00,,,0.18,,2013-02-20 14:11:00,
2013-02-20 09:22:00,25.0,13.0,29.93,SE,131,13.0,31.0,59,0.00,,,0.18,,2013-02-20 14:22:00,
2013-02-20 09:32:00,26.0,12.0,29.93,ESE,120,16.0,31.0,56,0.00,,,0.18,,2013-02-20 14:32:00,
2013-02-20 09:42:00,26.0,12.0,29.93,ESE,120,16.0,31.0,56,0.00,,,0.18,,2013-02-20 14:42:00,
2013-02-20 09:52:00,26.0,11.0,29.93,ESE,107,17.0,27.0,53,0.00,,,0.18,,2013-02-20 14:52:00,
2013-02-20 10:02:00,26.0,11.0,29.93,South,176,15.0,32.0,52,0.00,,,0.18,,2013-02-20 15:02:00,
2013-02-20 10:11:00,26.0,11.0,29.93,South,176,15.0,32.0,52,0.00,,,0.18,,2013-02-20 15:11:00,
2013-02-20 10:22:00,26.0,11.0,29.94,ESE,122,14.0,26.0,52,0.00,,,0.18,,2013-02-20 15:22:00,
2013-02-20 10:32:00,26.0,11.0,29.93,SE,129,14.0,29.0,52,0.00,,,0.18,,2013-02-20 15:32:00,
2013-02-20 10:42:00,26.0,11.0,29.93,SE,129,14.0,29.0,52,0.00,,,0.18,,2013-02-20 15:42:00,
2013-02-20 10:52:00,26.0,10.0,29.93,ESE,105,14.0,26.0,50,0.00,,,0.18,,2013-02-20 15:52:00,
2013-02-20 11:01:00,27.0,12.0,29.93,ESE,108,12.0,23.0,52,0.00,,,0.18,,2013-02-20 16:01:00,
2013-02-20 11:12:00,27.0,12.0,29.93,ESE,108,12.0,23.0,52,0.00,,,0.18,,2013-02-20 16:12:00,
2013-02-20 11:21:00,26.0,12.0,29.93,East,86,14.0,23.0,54,0.00,,,0.18,,2013-02-20 16:21:00,
2013-02-20 11:32:00,26.0,11.0,29.93,SE,127,13.0,22.0,52,0.00,,,0.18,,2013-02-20 16:32:00,
2013-02-20 11:42:00,26.0,11.0,29.93,SE,127,13.0,22.0,52,0.00,,,0.18,,2013-02-20 16:42:00,
2013-02-20 11:52:00,27.0,12.0,29.93,ESE,119,12.0,24.0,53,0.00,,,0.18,,2013-02-20 16:52:00,
2013-02-20 12:01:00,27.0,12.0,29.93,East,91,17.0,23.0,52,0.00,,,0.15,,2013-02-20 17:01:00,
2013-02-20 12:11:00,26.0,11.0,29.92,ESE,104,11.0,28.0,53,0.00,,,0.15,,2013-02-20 17:11:00,
2013-02-20 12:21:00,26.0,11.0,29.92,ESE,104,11.0,28.0,53,0.00,,,0.15,,2013-02-20 17:21:00,
2013-02-20 12:32:00,26.0,11.0,29.92,SE,134,11.0,19.0,53,0.00,,,0.15,,2013-02-20 17:32:00,
2013-02-20 12:42:00,26.0,11.0,29.92,SE,134,11.0,19.0,53,0.00,,,0.15,,2013-02-20 17:42:00,
2013-02-20 12:52:00,27.0,13.0,29.92,SE,136,11.0,25.0,54,0.00,,,0.15,,2013-02-20 17:52:00,
2013-02-20 13:02:00,27.0,13.0,29.92,SE,136,11.0,25.0,54,0.00,,,0.15,,2013-02-20 18:02:00,
2013-02-20 13:11:00,27.0,13.0,29.92,SE,136,11.0,25.0,54,0.00,,,0.15,,2013-02-20 18:11:00,
2013-02-20 13:22:00,26.0,11.0,29.93,East,98,12.0,20.0,53,0.00,,,0.12,,2013-02-20 18:22:00,
2013-02-20 13:32:00,26.0,11.0,29.93,East,98,12.0,20.0,53,0.00,,,0.12,,2013-02-20 18:32:00,
2013-02-20 13:42:00,26.0,11.0,29.93,East,98,12.0,20.0,53,0.00,,,0.12,,2013-02-20 18:42:00,
2013-02-20 13:52:00,27.0,13.0,29.92,ESE,118,14.0,25.0,56,0.00,,,0.12,,2013-02-20 18:52:00,
2013-02-20 14:01:00,27.0,13.0,29.92,ESE,117,13.0,21.0,56,0.00,,,0.07,,2013-02-20 19:01:00,
2013-02-20 14:11:00,27.0,13.0,29.92,ESE,117,13.0,21.0,56,0.00,,,0.07,,2013-02-20 19:11:00,
2013-02-20 14:21:00,26.0,12.0,29.92,SE,124,16.0,22.0,56,0.00,,,0.07,,2013-02-20 19:21:00,
2013-02-20 14:32:00,27.0,14.0,29.93,ESE,114,14.0,22.0,57,0.00,,,0.07,,2013-02-20 19:32:00,
2013-02-20 14:41:00,27.0,14.0,29.93,ESE,114,14.0,22.0,57,0.00,,,0.07,,2013-02-20 19:41:00,
2013-02-20 14:52:00,27.0,14.0,29.93,ESE,114,14.0,22.0,57,0.00,,,0.07,,2013-02-20 19:52:00,
2013-02-20 15:01:00,27.0,12.0,29.94,SE,124,14.0,21.0,53,0.00,,,0.05,,2013-02-20 20:01:00,
2013-02-20 15:11:00,26.0,14.0,29.95,East,87,8.0,21.0,60,0.00,,,0.05,,2013-02-20 20:11:00,
2013-02-20 15:21:00,26.0,14.0,29.95,East,87,8.0,21.0,60,0.00,,,0.05,,2013-02-20 20:21:00,
2013-02-20 15:31:00,27.0,12.0,29.94,SE,136,16.0,24.0,52,0.00,,,0.05,,2013-02-20 20:31:00,
2013-02-20 15:41:00,27.0,12.0,29.94,SE,136,16.0,24.0,52,0.00,,,0.05,,2013-02-20 20:41:00,
2013-02-20 15:51:00,27.0,12.0,29.94,SE,136,16.0,24.0,52,0.00,,,0.05,,2013-02-20 20:51:00,
2013-02-20 16:01:00,27.0,13.0,29.95,ESE,115,10.0,20.0,55,0.00,,,0.03,,2013-02-20 21:01:00,
2013-02-20 16:11:00,27.0,13.0,29.95,ESE,115,10.0,20.0,55,0.00,,,0.03,,2013-02-20 21:11:00,
2013-02-20 16:21:00,26.0,11.0,29.96,East,100,11.0,25.0,52,0.00,,,0.03,,2013-02-20 21:21:00,
2013-02-20 16:32:00,27.0,12.0,29.97,ESE,108,18.0,25.0,52,0.00,,,0.03,,2013-02-20 21:32:00,
2013-02-20 16:42:00,27.0,12.0,29.97,ESE,108,18.0,25.0,52,0.00,,,0.03,,2013-02-20 21:42:00,
2013-02-20 16:51:00,26.0,12.0,29.97,ESE,114,9.0,25.0,54,0.00,,,0.03,,2013-02-20 21:51:00,
2013-02-20 17:02:00,26.0,11.0,29.97,ESE,109,14.0,27.0,52,0.00,,,0.03,,2013-02-20 22:02:00,
2013-02-20 17:11:00,26.0,11.0,29.97,ESE,109,14.0,27.0,52,0.00,,,0.03,,2013-02-20 22:11:00,
2013-02-20 17:21:00,26.0,12.0,29.97,ESE,103,12.0,23.0,54,0.00,,,0.03,,2013-02-20 22:21:00,
2013-02-20 17:31:00,26.0,12.0,29.97,ESE,103,12.0,23.0,54,0.00,,,0.03,,2013-02-20 22:31:00,
2013-02-20 17:43:00,26.0,12.0,29.97,ESE,103,12.0,23.0,54,0.00,,,0.03,,2013-02-20 22:43:00,
2013-02-20 17:51:00,25.0,12.0,29.98,ESE,104,16.0,21.0,56,0.00,,,0.03,,2013-02-20 22:51:00,
2013-02-20 18:01:00,25.0,12.0,29.99,East,87,9.0,22.0,56,0.00,,,0.03,,2013-02-20 23:01:00,
2013-02-20 18:12:00,25.0,12.0,29.99,East,87,9.0,22.0,56,0.00,,,0.03,,2013-02-20 23:12:00,
2013-02-20 18:22:00,25.0,11.0,30.00,ESE,105,16.0,28.0,54,0.00,,,0.03,,2013-02-20 23:22:00,
2013-02-20 18:32:00,25.0,12.0,30.00,ESE,104,9.0,18.0,56,0.00,,,0.03,,2013-02-20 23:32:00,
2013-02-20 18:42:00,25.0,12.0,30.00,ESE,104,9.0,18.0,56,0.00,,,0.03,,2013-02-20 23:42:00,
2013-02-20 18:52:00,25.0,12.0,30.00,ESE,121,12.0,22.0,57,0.00,,,0.03,,2013-02-20 23:52:00,
2013-02-20 19:03:00,25.0,12.0,30.01,East,96,11.0,23.0,57,0.00,,,0.00,,2013-02-21 00:03:00,
2013-02-20 19:11:00,25.0,12.0,30.01,East,96,11.0,23.0,57,0.00,,,0.00,,2013-02-21 00:11:00,
2013-02-20 19:22:00,25.0,12.0,30.01,East,101,15.0,23.0,57,0.00,,,0.00,,2013-02-21 00:22:00,
2013-02-20 19:32:00,25.0,12.0,30.01,East,86,12.0,20.0,58,0.00,,,0.00,,2013-02-21 00:32:00,
2013-02-20 19:42:00,25.0,12.0,30.01,East,86,12.0,20.0,58,0.00,,,0.00,,2013-02-21 00:42:00,
2013-02-20 19:52:00,25.0,12.0,30.01,SE,127,11.0,23.0,57,0.00,,,0.00,,2013-02-21 00:52:00,
2013-02-20 20:01:00,25.0,12.0,30.02,SE,125,13.0,20.0,58,0.00,,,0.00,,2013-02-21 01:01:00,
2013-02-20 20:11:00,25.0,12.0,30.02,SE,125,13.0,20.0,58,0.00,,,0.00,,2013-02-21 01:11:00,
2013-02-20 20:21:00,24.0,11.0,30.03,ESE,113,15.0,27.0,58,0.00,,,0.00,,2013-02-21 01:21:00,
2013-02-20 20:32:00,24.0,11.0,30.03,ESE,121,11.0,19.0,58,0.00,,,0.00,,2013-02-21 01:32:00,
2013-02-20 20:42:00,24.0,11.0,30.03,ESE,121,11.0,19.0,58,0.00,,,0.00,,2013-02-21 01:42:00,
2013-02-20 20:52:00,24.0,11.0,30.03,SE,139,8.0,16.0,58,0.00,,,0.00,,2013-02-21 01:52:00,
2013-02-20 21:02:00,24.0,11.0,30.02,ESE,115,9.0,14.0,58,0.00,,,0.00,,2013-02-21 02:02:00,
2013-02-20 21:11:00,24.0,11.0,30.02,ESE,115,9.0,14.0,58,0.00,,,0.00,,2013-02-21 02:11:00,
2013-02-20 21:22:00,24.0,12.0,30.03,ESE,123,7.0,15.0,59,0.00,,,0.00,,2013-02-21 02:22:00,
2013-02-20 21:32:00,24.0,11.0,30.03,ENE,77,11.0,20.0,58,0.00,,,0.00,,2013-02-21 02:32:00,
2013-02-20 21:42:00,24.0,11.0,30.03,ENE,77,11.0,20.0,58,0.00,,,0.00,,2013-02-21 02:42:00,
2013-02-20 21:51:00,24.0,11.0,30.03,ENE,77,11.0,20.0,58,0.00,,,0.00,,2013-02-21 02:51:00,
2013-02-20 22:02:00,23.0,10.0,30.03,ESE,114,9.0,17.0,58,0.00,,,0.00,,2013-02-21 03:02:00,
2013-02-20 22:12:00,23.0,10.0,30.03,ESE,114,9.0,17.0,58,0.00,,,0.00,,2013-02-21 03:12:00,
2013-02-20 22:21:00,23.0,11.0,30.03,East,96,7.0,20.0,59,0.00,,,0.00,,2013-02-21 03:21:00,
2013-02-20 22:32:00,23.0,11.0,30.05,East,96,7.0,19.0,59,0.00,,,0.00,,2013-02-21 03:32:00,
2013-02-20 22:42:00,23.0,11.0,30.05,East,96,7.0,19.0,59,0.00,,,0.00,,2013-02-21 03:42:00,
2013-02-20 22:51:00,23.0,11.0,30.05,ESE,105,10.0,15.0,59,0.00,,,0.00,,2013-02-21 03:51:00,
2013-02-20 23:01:00,22.0,10.0,30.05,SE,128,8.0,14.0,59,0.00,,,0.00,,2013-02-21 04:01:00,
2013-02-20 23:11:00,22.0,10.0,30.05,SE,128,8.0,14.0,59,0.00,,,0.00,,2013-02-21 04:11:00,
2013-02-20 23:22:00,23.0,11.0,30.06,SE,128,7.0,13.0,60,0.00,,,0.00,,2013-02-21 04:22:00,
2013-02-20 23:32:00,22.0,10.0,30.05,ESE,110,9.0,19.0,60,0.00,,,0.00,,2013-02-21 04:32:00,
2013-02-20 23:42:00,22.0,10.0,30.05,ESE,110,9.0,19.0,60,0.00,,,0.00,,2013-02-21 04:42:00,
2013-02-20 23:52:00,22.0,11.0,30.05,ESE,109,10.0,17.0,61,0.00,,,0.00,,2013-02-21 04:52:00,